Estherville, IA

2:38 PM CST on November 22, 2017 (GMT -0600)
Estherville Municipal

Weather History for KEST - October, 2011

Change the Weather History Date:

Saturday, October 22, 2011

  Actual Average Record
Temperature  
Mean Temperature 47 °F 45 °F  
Max Temperature 63 °F 56 °F 80 °F (1963)
Min Temperature 30 °F 34 °F 18 °F (1976)
Degree Days  
Heating Degree Days 18 20  
Month to date heating degree days 216 341  
Since 1 July heating degree days 436 549  
Cooling Degree Days 0 0  
Month to date cooling degree days 21 4  
Year to date cooling degree days 767 591  
Moisture  
Dew Point 35 °F    
Average Humidity 63    
Maximum Humidity 89    
Minimum Humidity 36    
Precipitation  
Precipitation 0.00 in 0.05 in 1.29 in (2008)
Month to date precipitation 0.25 1.76  
Year to date precipitation 19.01  
Sea Level Pressure  
Sea Level Pressure 30.08 in    
Wind  
Wind Speed 5 mph (NW)    
Max Wind Speed 10 mph    
Max Gust Speed 14 mph    
Visibility 9 miles    
Events      
T = Trace of Precipitation, MM = Missing Value Source: NWS Daily Summary

Daily Weather History Graph

Daily Weather History Graph

Search for Another Location

Airport or City:

Trip Planner

Search our weather history database for the weather conditions in past years. The results will help you decide how hot, cold, wet, or windy it might be!

Date:

Astronomy

Oct. 22, 2011 Rise Set
Actual Time 7:41 AM CDT 6:25 PM CDT
Civil Twilight 7:12 AM CDT 6:54 PM CDT
Nautical Twilight 6:38 AM CDT 7:27 PM CDT
Astronomical Twilight 6:05 AM CDT 8:00 PM CDT
Moon 2:31 AM CDT 3:50 PM CDT
Length of Visible Light 11h 41m
Length of Day
10h 43m
Waning Crescent, 23% of the Moon is Illuminated
Oct 22
Waning Crescent
Oct 26
New
Nov 2
First Quarter
Nov 10
Full
Nov 18
Last Quarter

Hourly Weather History & Observations

Time (CDT) Temp. Windchill Dew Point Humidity Pressure Visibility Wind Dir Wind Speed Gust Speed Precip Events Conditions
12:52 AM 42.1 °F 37.1 °F 35.1 °F 76% 30.07 in 10.0 mi NW 8.1 mph - N/A   Clear
1:52 AM 43.0 °F 38.2 °F 36.0 °F 76% 30.07 in 10.0 mi NW 8.1 mph - N/A   Mostly Cloudy
2:52 AM 45.0 °F 41.2 °F 37.0 °F 74% 30.06 in 10.0 mi North 6.9 mph - N/A   Overcast
3:52 AM 46.0 °F 41.9 °F 37.0 °F 71% 30.08 in 10.0 mi NNW 8.1 mph - N/A   Overcast
4:52 AM 42.1 °F 37.1 °F 35.1 °F 76% 30.09 in 10.0 mi NNW 8.1 mph - N/A   Clear
5:52 AM 41.0 °F 35.8 °F 34.0 °F 76% 30.11 in 10.0 mi NNW 8.1 mph - N/A   Clear
6:52 AM 34.0 °F 27.2 °F 30.9 °F 89% 30.13 in 9.0 mi NW 8.1 mph - N/A   Clear
7:52 AM 33.1 °F 26.1 °F 30.9 °F 92% 30.15 in 7.0 mi NW 8.1 mph - N/A   Clear
8:52 AM 39.0 °F 35.7 °F 35.1 °F 86% 30.16 in 8.0 mi NW 4.6 mph - N/A   Clear
9:52 AM 48.9 °F - 37.9 °F 66% 30.15 in 10.0 mi NNE 5.8 mph - N/A   Clear
11:52 AM 55.9 °F - 37.9 °F 51% 30.16 in 10.0 mi ENE 5.8 mph - N/A   Clear
12:52 PM 59.0 °F - 37.0 °F 44% 30.13 in 10.0 mi East 6.9 mph - N/A   Clear
1:52 PM 61.0 °F - 35.1 °F 38% 30.11 in 10.0 mi Calm Calm - N/A   Clear
2:52 PM 61.0 °F - 35.1 °F 38% 30.08 in 10.0 mi Calm Calm - N/A   Clear
3:52 PM 61.0 °F - 35.1 °F 38% 30.06 in 10.0 mi Calm Calm - N/A   Clear
4:52 PM 62.1 °F - 35.1 °F 37% 30.05 in 10.0 mi Calm Calm - N/A   Clear
5:52 PM 60.1 °F - 35.1 °F 39% 30.05 in 10.0 mi Calm Calm - N/A   Clear
6:52 PM 52.0 °F - 34.0 °F 50% 30.07 in 9.0 mi Calm Calm - N/A   Partly Cloudy
7:52 PM 46.9 °F - 32.0 °F 56% 30.06 in 5.0 mi SSE 5.8 mph - N/A   Haze
8:52 PM 48.0 °F - 34.0 °F 58% 30.05 in 7.0 mi SSW 9.2 mph - N/A   Mostly Cloudy
9:52 PM 45.0 °F 43.5 °F 33.1 °F 63% 30.04 in 8.0 mi SW 3.5 mph - N/A   Scattered Clouds
10:52 PM 42.1 °F 38.4 °F 30.9 °F 65% 30.01 in 9.0 mi South 5.8 mph - N/A   Scattered Clouds
11:52 PM 43.0 °F 40.3 °F 34.0 °F 71% 29.99 in 9.0 mi SSW 4.6 mph - N/A   Clear